TimeEST,TemperatureF,Dew PointF,Humidity,Sea Level PressureIn,VisibilityMPH,Wind Direction,Wind SpeedMPH,Gust SpeedMPH,PrecipitationIn,Events,Conditions,WindDirDegrees,DateUTC
12:53 AM,57.0,48.9,74,30.11,10.0,NW,21.9,28.8,N/A,,Clear,310,2012-12-30 05:53:00
1:53 AM,55.0,48.0,77,30.13,10.0,NW,12.7,21.9,N/A,,Clear,320,2012-12-30 06:53:00
2:53 AM,54.0,46.9,77,30.14,10.0,NW,13.8,-,N/A,,Clear,320,2012-12-30 07:53:00
3:53 AM,53.1,46.9,80,30.15,10.0,NNW,13.8,-,N/A,,Clear,330,2012-12-30 08:53:00
4:53 AM,51.1,45.0,80,30.16,10.0,NW,16.1,-,N/A,,Clear,320,2012-12-30 09:53:00
5:53 AM,50.0,44.1,80,30.19,10.0,NNW,10.4,-,N/A,,Partly Cloudy,330,2012-12-30 10:53:00
6:53 AM,48.9,44.1,83,30.21,10.0,NW,15.0,-,N/A,,Scattered Clouds,320,2012-12-30 11:53:00
7:53 AM,50.0,43.0,77,30.23,10.0,NNW,12.7,-,N/A,,Mostly Cloudy,330,2012-12-30 12:53:00
8:53 AM,52.0,43.0,71,30.25,10.0,NW,12.7,-,N/A,,Mostly Cloudy,320,2012-12-30 13:53:00
9:53 AM,55.9,45.0,67,30.27,10.0,NNW,12.7,-,N/A,,Mostly Cloudy,340,2012-12-30 14:53:00
10:53 AM,60.1,46.9,62,30.27,10.0,NNW,15.0,-,N/A,,Mostly Cloudy,340,2012-12-30 15:53:00
11:53 AM,62.1,48.9,62,30.26,10.0,North,13.8,-,N/A,,Mostly Cloudy,350,2012-12-30 16:53:00
12:53 PM,64.9,51.1,61,30.23,10.0,NNW,17.3,21.9,N/A,,Mostly Cloudy,340,2012-12-30 17:53:00
1:53 PM,66.9,52.0,59,30.22,10.0,North,15.0,23.0,N/A,,Mostly Cloudy,360,2012-12-30 18:53:00
2:53 PM,66.0,53.1,63,30.23,10.0,North,16.1,23.0,N/A,,Mostly Cloudy,360,2012-12-30 19:53:00
3:53 PM,66.0,54.0,65,30.24,10.0,North,12.7,-,N/A,,Mostly Cloudy,360,2012-12-30 20:53:00
4:53 PM,66.9,52.0,59,30.25,10.0,NNE,11.5,18.4,N/A,,Mostly Cloudy,30,2012-12-30 21:53:00
5:53 PM,66.9,51.1,57,30.25,10.0,NNE,10.4,-,N/A,,Mostly Cloudy,30,2012-12-30 22:53:00
6:53 PM,66.9,51.1,57,30.26,10.0,NE,13.8,-,N/A,,Mostly Cloudy,50,2012-12-30 23:53:00
7:53 PM,66.9,52.0,59,30.27,10.0,NE,13.8,-,N/A,,Overcast,50,2012-12-31 00:53:00
8:53 PM,66.9,51.1,57,30.28,10.0,NE,12.7,18.4,N/A,,Overcast,50,2012-12-31 01:53:00
9:53 PM,66.9,53.1,61,30.29,10.0,ENE,15.0,20.7,N/A,,Mostly Cloudy,70,2012-12-31 02:53:00
10:53 PM,66.9,51.1,57,30.28,10.0,ENE,13.8,18.4,N/A,,Mostly Cloudy,70,2012-12-31 03:53:00
11:53 PM,66.9,51.1,57,30.28,10.0,ENE,12.7,21.9,N/A,,Mostly Cloudy,70,2012-12-31 04:53:00